Home   Weather   Gelsenkirchen   Past weeks

Flag for Germany Past Weather in Gelsenkirchen, North Rhine-Westphalia, Germany — Yesterday and Last 2 Weeks

Now
57 °F

Sunny.


Feels Like: 55 °F
Forecast: 52 / 67 °F
Wind: 12 mph from Southeast

Location: Duesseldorf

Current Time: Sep 25, 2016 at 9:17:03 AM

Latest Report: Sep 25, 2016 at 8:20 AM


Visibility: 10 mi

Pressure: 30.04 "Hg

Humidity: 72%

Dew Point: 48 °F

Location of GelsenkirchenLocation

Past Weather in Gelsenkirchen — Graph

°F

Gelsenkirchen Temperature Yesterday

Maximum temperature yesterday: 75 °F (at 2:50 PM)
Minimum temperature yesterday: 48 °F (at 2:50 AM)
Average temperature yesterday: 63 °F

High & Low Weather Summary for the Past Weeks

 TemperatureHumidityPressure
High90 °F (Sep 13, 2:20 PM)100% (Sep 12, 2:50 AM)30.30 "Hg (Sep 12, 2:50 AM)
Low46 °F (Sep 22, 3:20 AM)27% (Sep 14, 3:50 PM)29.77 "Hg (Sep 15, 4:20 PM)
Average66 °F70%30.04 "Hg
* Reported Sep 10 8:20 AM — Sep 25 8:20 AM, Gelsenkirchen, Weather by CustomWeather, © 2016

Note: Actual official high and low records may vary slightly from our data, if they occured in-between our weather recording intervals... More about our weather records

Advertising

Gelsenkirchen Weather History for the Previous 24 Hours

Scroll right to see more
 ConditionsComfort  
Time TempWeatherWind HumidityBarometerVisibility
8:20 AM
Sun, Sep 25
57 °FSunny.12 mph72%30.04 "Hg10 mi
7:50 AM57 °FSunny.13 mph72%30.04 "Hg10 mi
7:20 AM57 °FClear.12 mph72%30.04 "Hg10 mi
6:50 AM57 °FClear.12 mph72%30.04 "Hg10 mi
6:20 AM57 °FClear.12 mph72%30.07 "Hg10 mi
5:50 AM57 °FClear.12 mph72%30.07 "Hg10 mi
5:20 AM57 °FClear.13 mph72%30.07 "Hg10 mi
4:50 AM59 °FClear.12 mph68%30.07 "Hg10 mi
4:20 AM59 °FClear.12 mph68%30.07 "Hg10 mi
3:50 AM59 °FClear.10 mph68%30.07 "Hg10 mi
3:20 AM59 °FClear.9 mph72%30.09 "Hg10 mi
2:50 AM59 °FClear.9 mph72%30.09 "Hg10 mi
2:20 AM59 °FClear.8 mph72%30.09 "Hg10 mi
1:50 AM59 °FClear.7 mph68%30.09 "Hg10 mi
1:20 AM59 °FClear.7 mph68%30.09 "Hg10 mi
12:50 AM61 °FClear.8 mph63%30.12 "Hg10 mi
12:20 AM61 °FClear.7 mph63%30.12 "Hg10 mi
11:50 PM
Sat, Sep 24
63 °FClear.9 mph59%30.12 "Hg10 mi
11:20 PM64 °FClear.9 mph56%30.12 "Hg10 mi
10:50 PM64 °FClear.9 mph56%30.12 "Hg10 mi
10:20 PM64 °FClear.9 mph56%30.12 "Hg10 mi
9:50 PM66 °FClear.8 mph52%30.12 "Hg10 mi
9:20 PM68 °FClear.10 mph49%30.12 "Hg10 mi
8:50 PM66 °FClear.8 mph52%30.12 "Hg10 mi
8:20 PM64 °FPassing clouds.6 mph56%30.12 "HgN/A
7:50 PM68 °FClear.7 mph49%30.12 "Hg10 mi
7:20 PM70 °FSunny.9 mph46%30.12 "Hg10 mi
6:50 PM72 °FSunny.8 mph44%30.12 "Hg10 mi
6:20 PM73 °FPassing clouds.12 mph38%30.12 "HgN/A
5:50 PM75 °FPassing clouds.12 mph39%30.15 "HgN/A
5:20 PM75 °FPassing clouds.8 mph39%30.15 "HgN/A
4:50 PM75 °FPassing clouds.9 mph41%30.15 "HgN/A
4:20 PM75 °FPassing clouds.10 mph41%30.18 "HgN/A
3:50 PM75 °FPassing clouds.9 mph41%30.18 "HgN/A
3:20 PM73 °FPassing clouds.9 mph47%30.21 "HgN/A
2:50 PM75 °FPassing clouds.8 mph41%30.21 "HgN/A
2:20 PM73 °FPassing clouds.8 mph44%30.21 "HgN/A
1:50 PM73 °FSunny.6 mph47%30.24 "Hg10 mi
1:20 PM73 °FPassing clouds.7 mph44%30.24 "HgN/A
12:50 PM72 °FPassing clouds.8 mph50%30.24 "HgN/A
12:20 PM70 °FPassing clouds.7 mph57%30.27 "HgN/A
11:50 AM68 °FPassing clouds.8 mph60%30.27 "HgN/A
11:20 AM66 °FPassing clouds.7 mph64%30.27 "HgN/A
10:50 AM64 °FPassing clouds.7 mph68%30.27 "HgN/A
10:20 AM61 °FPassing clouds.9 mph77%30.27 "HgN/A
9:50 AM59 °FPassing clouds.6 mph82%30.27 "HgN/A
9:20 AM59 °FSunny.15 mph77%30.27 "Hg10 mi
Weather by CustomWeather, © 2016

See weather overviewHow to use our weather pages